CAPE
614 626 630 665 863 918 1040 1813 1428 1403 2095 2643 2499 2498 2330 2643 3050 3326 3440 3968 4172 4484 4556 4487 4246 4297 4350 4478 4556 4206 3957 4059 4219 4237 4184 4038 3377 3394 3556 3258 3166 3191 2883 2938 2606 2566 2477 2206 2206 2100 1754 1608 1399 1634 1339 1077 975 1057 927 672 835 1720 562
190 307 262 267 482 853 1104 1555 2240 2191 2406 2902 2628 2525 2290 2513 3080 3333 3565 4136 4277 4502 4630 4529 4413 4379 4445 4501 4425 4393 4024 4061 4232 4102 4222 4191 3668 3790 3542 3353 3206 3345 3318 2954 2932 2963 2234 2409 2373 2130 1853 1553 1298 1523 1305 1047 1236 1087 879 892 820 970 851
220 108 154 199 360 944 1318 1316 1664 1841 2141 2255 2361 2349 2270 2558 3054 3413 3540 4079 4428 4622 4606 4546 4356 4367 4475 4627 4420 4353 4155 4061 4121 4241 4023 4037 3774 2998 3369 3689 3460 3276 3212 3103 3066 2622 2336 1858 2163 2190 1782 1327 1101 1439 1284 1030 1199 982 1050 785 736 821 965
132 108 376 612 834 1604 1638 1335 1756 1866 1716 1722 2180 2150 2425 2784 3020 3336 3490 3887 4340 4572 4705 4565 4323 4221 4400 4648 4454 4269 4243 4145 4153 3872 3628 3607 3691 3204 3342 3708 3416 3275 2957 2926 2724 2381 1884 1858 1836 2121 1845 1660 1424 1240 1074 956 841 837 862 658 632 719 896
332 547 545 586 503 1557 1898 1584 1590 2054 1817 1829 1840 2437 2683 2886 2942 3104 3502 3498 3844 4246 4380 4438 3897 3864 4268 4596 4380 4216 4124 4277 4209 3954 3667 3525 3672 3574 3408 2887 3344 2896 2914 2755 2638 2521 2509 2211 1740 1838 1668 1730 1488 1300 1150 1204 875 820 702 869 657 738 866
815 537 371 341 240 576 1426 1486 1230 1244 1767 1960 2073 2667 2518 2521 2426 2400 2837 3286 3570 3947 4459 4599 4242 4196 4452 4498 4287 4112 4206 4362 4316 4238 3944 3602 3806 3678 3409 3132 3013 2890 2716 2762 2611 2626 2752 2167 1787 1668 1478 1491 1095 928 928 1042 759 828 721 945 914 670 544
569 414 378 236 284 310 570 870 870 1192 1532 1951 2006 2293 2351 2234 2077 1945 2328 2842 3136 3992 4285 4374 4247 4224 4304 4291 4289 4404 4503 4457 4488 4310 4007 3740 3793 3780 3552 3299 3103 2956 2529 2740 2647 2474 2564 2150 1877 1630 1463 1200 1102 775 778 895 854 790 798 763 884 947 688
91 146 461 379 207 299 409 695 944 1222 1530 2036 1920 2081 2296 2274 2185 1973 1981 2656 3154 3552 4024 4082 4322 4244 4156 4257 4424 4378 4491 4189 4297 4291 4044 3805 3772 3638 3632 3498 3314 3193 2893 2760 2779 2670 2399 2226 1945 1791 1589 1220 1002 866 974 1026 1048 877 840 794 824 850 684
580 289 643 339 417 153 69 658 1331 1655 1438 1410 1920 2291 2279 2372 2238 2065 2237 2695 2995 3358 3947 4102 4099 3898 4484 4571 4464 4335 4416 4442 4599 4454 4182 3724 3516 3028 3154 3550 3530 3364 3034 2692 2744 2752 2494 2292 1936 1846 1646 1094 920 1028 1153 1123 1067 955 931 817 893 780 684
311 244 470 489 315 178 882 1320 1632 1668 1250 1122 1338 2255 2786 2569 2443 2394 2430 2549 2790 3190 3701 3836 3744 3795 4556 4612 4486 4278 4440 4581 4713 4124 3857 3480 3178 2893 2817 2949 3297 3312 3182 2743 2509 2833 2678 2375 1920 1881 1590 1063 954 1080 1195 1210 1046 990 1007 968 922 809 744
1394 778 840 702 922 936 952 1333 1510 1814 1871 1852 1827 2357 3025 3162 3023 2656 2570 2638 2881 3282 3596 3393 3270 3500 4195 4151 3944 3909 4400 4340 4430 4603 4298 3761 3325 3099 2903 3094 3221 3158 2988 2728 2416 2886 2794 2371 1924 1862 1552 1092 990 1048 1169 1210 1152 1117 903 1020 877 793 770
1223 1796 1346 1350 1366 1105 1005 1146 1876 2113 2338 3139 3017 2870 3368 3462 3177 2742 2629 2501 2444 2450 2778 2892 2488 2957 3776 4184 4019 4272 4324 4060 4233 4500 4154 3952 3406 3172 3016 3075 3222 3363 3264 3016 2776 3105 2757 2374 1845 1703 1564 1169 1118 1066 1118 1202 1254 1238 937 888 828 789 781
2333 2120 1825 1957 1669 1295 1679 2331 2458 2934 3657 4186 3247 2804 3209 3432 3118 2792 2994 2714 2679 2539 2292 2475 2334 2540 3283 3896 4139 4298 4156 4188 4182 4455 4271 4202 3814 3406 3308 3106 3004 3105 3170 3058 2912 2838 2600 2398 1938 1625 1538 1208 1166 1111 1152 1281 1250 1216 1121 1011 951 835 822
2766 2119 3123 3309 2631 3143 3029 4240 2872 3130 3872 4311 3466 2800 2915 3032 2869 2931 2946 2454 2039 1945 1986 2172 2229 2286 2930 3948 4168 4289 4386 4551 4244 4184 4467 4388 4226 3736 3404 3255 3019 3110 3521 3262 3144 2716 2570 2402 2105 1682 1480 1259 1188 1292 1290 1242 1210 1237 1229 1204 1099 867 781
1806 1627 2947 3113 3231 3756 3499 5187 5760 4107 3974 4381 3828 3036 2691 2725 2748 2833 2616 1771 1750 1566 1918 2006 2224 2308 2757 3742 4362 4365 4320 4642 4412 4196 4382 4437 4552 4102 3762 3530 3211 3111 3672 3636 3312 2814 2544 2393 1985 1534 1556 1396 1254 1464 1224 998 1084 1154 1251 1259 959 736 694
164 974 2947 2958 3643 3819 4327 4860 6102 5996 5310 5105 4064 3414 2736 2699 2887 2772 2452 1892 1680 1526 1658 2133 2253 2427 2671 3718 4427 4606 4628 4848 4675 4521 4606 4628 4676 4370 3964 3612 3438 3190 3651 3703 3420 3072 2698 2490 2162 1618 1606 1568 1552 1493 1174 794 896 938 1094 956 757 580 557
10 3 190 2057 3742 3429 4070 4105 5526 5870 5734 5231 4590 4014 3154 3029 3109 3102 2230 1611 1228 1663 1765 2535 2589 2578 2600 3799 4623 4896 5026 5171 5188 5002 4914 4918 4720 4428 4134 3902 3692 3454 3643 3722 3448 3096 2859 2805 2055 1731 1704 1951 1483 902 782 1202 1023 1015 859 585 434 408 502
10 200 321 1126 3462 3063 3552 4074 4444 5211 5298 5048 4850 4551 3820 3766 3766 3431 2270 1574 1375 1265 1550 2586 2807 2738 2800 3868 5026 5276 5303 5416 5559 5644 5419 5206 4949 4665 4360 4221 4103 3858 3639 3428 3531 3275 2976 2848 2231 1700 1980 1989 1330 931 1007 1103 1213 1200 1075 824 587 410 469
54 82 74 2134 3690 3326 3423 3162 3998 4568 4388 4089 4132 4367 4192 4303 4041 3762 3186 2494 1890 1702 1530 2272 3020 3296 3278 4306 5334 5577 5641 5782 5990 5997 5914 5630 5212 4876 4682 4638 4472 4324 4175 3894 3668 3517 3173 2837 2400 2193 2159 2009 1494 1132 1324 1370 1440 1433 1309 1130 804 599 415
65 2 6 1311 3379 3858 3333 3458 3486 4428 4355 4283 4206 3702 3714 3907 3957 3983 3719 3366 3074 2525 2100 2166 3703 3919 3730 4834 5507 5897 6122 6177 6212 6112 5971 5782 5496 5133 4938 4802 4479 4152 4106 3721 3514 3332 2949 2664 2550 2424 2302 1924 1745 1421 1500 1502 1700 1704 1578 1088 771 640 468
662 243 33 54 2835 3356 4156 4172 4536 5008 4872 4121 3824 3965 3909 4029 4034 4118 3900 3724 3785 3650 3387 3073 4598 4370 4366 5207 5840 6253 6371 6333 6110 5934 5880 5624 5351 5066 4949 4651 4500 4186 3699 3363 3101 3000 2765 2423 2297 2169 2091 1549 1570 1628 1570 1616 1627 1723 1712 854 632 506 488
0 52 231 126 105 1445 4802 4640 4782 4674 5025 4286 4504 3917 3584 3663 3560 3344 3267 3311 3690 3834 3940 4565 5484 4999 4996 5748 6185 6441 6311 6040 5898 5799 5511 5244 5024 4861 4697 4564 4512 4135 3828 3475 3256 2920 2901 2607 2146 2183 1739 1693 1662 1669 1766 1651 1722 1702 1724 1399 847 581 635
0 0 0 92 285 2643 5151 4980 5084 4660 5591 4925 3779 3662 3455 3397 3431 3529 3480 3241 3348 3928 4225 5386 5600 5326 5452 6192 6481 6330 6056 5870 5717 5402 5089 4852 4580 4376 4252 4200 4220 4101 3732 3313 3128 2972 3060 2812 2333 1889 1786 1784 1863 1846 1754 1737 1694 1674 1714 1654 1401 875 755
0 0 0 0 32 1726 5558 5245 5142 5272 5362 4996 4304 3802 3804 3755 3925 4070 3962 3584 3918 4074 4190 6074 5615 5640 6054 6426 6416 6096 5856 5815 5662 5350 4932 4581 4259 4030 3786 3573 3633 3720 3606 3209 2658 2542 2508 2338 2392 2040 1824 1812 1862 1856 1806 1731 1673 1616 1543 1421 1266 994 820
0 0 0 0 0 154 5176 4940 4650 5338 5504 5041 4364 4006 4196 4071 4040 4095 4063 3943 3601 3755 4276 5803 5839 6108 6296 6224 6122 5953 5680 5505 5529 5230 4715 4416 4068 3626 3398 3148 3266 3073 3156 2869 2807 2445 2252 2244 1977 1836 1568 1336 1222 1296 1459 1622 1622 1528 1457 1320 1218 1063 915
0 0 0 0 0 0 2077 4652 4652 5808 5364 5034 4668 4094 4532 4370 4373 4158 4088 4358 3832 3913 4528 5475 6129 6321 6121 5908 5986 5840 5468 5247 5237 5079 4676 4394 4047 3666 3577 3113 2698 2987 2671 2517 2515 2382 2091 2355 1833 1572 1278 1074 972 828 806 1113 2013 1488 1359 1244 1174 1112 1062
144 47 124 0 0 35 3752 4696 5016 5482 4846 4903 4772 4145 4151 4194 4339 4182 4106 4412 4346 4149 4426 5480 6336 6362 6152 5992 5777 5611 5353 5172 5016 4947 4701 4230 3956 3418 3233 2958 2718 2560 2570 2250 2148 2434 2537 2092 1763 1579 1328 1024 830 726 693 889 1405 1327 1266 1126 1014 911 869
1112 1450 456 2934 5341 2916 4990 4350 4890 4814 4434 5136 4918 4198 4375 4412 4465 4478 4693 4779 4966 4958 4877 5971 6395 6364 6300 6002 5531 5172 5014 4734 4964 4777 4569 4378 3998 3649 3446 3074 2703 2581 2312 1990 2451 2436 2004 1749 1675 1466 1238 980 821 978 964 955 1078 1156 990 891 854 757 743
2237 2775 3784 4647 4764 4128 4000 4513 4722 4056 4007 4398 4072 3846 4495 4896 4996 4944 4978 5168 5435 5232 5785 6075 6258 6230 6020 5590 5231 4907 4772 4799 4679 4465 4362 4268 3996 3513 3256 2794 2535 2426 2426 2428 1990 1778 1646 1535 1426 1353 1148 1130 1523 1113 1008 1114 1030 932 896 812 798 678 684
4057 3757 2903 3165 3794 3796 3351 4246 4061 3473 3387 3485 3988 4475 4676 5524 4862 5058 5235 5575 5541 5804 5914 6047 6060 5856 5440 4995 5000 4784 4516 4580 4522 4417 4226 3966 3746 3306 2992 2649 2723 2794 2496 1872 1630 1602 1575 1480 1336 1074 1038 1032 1322 983 1066 1576 1014 997 922 830 808 730 654
3205 2779 2318 3055 3306 3663 3652 4021 3936 3430 4062 5144 5136 5363 5456 5218 5019 4999 5578 5831 5888 5824 5912 5773 5481 5087 4778 4607 4583 4577 4498 4416 4226 4088 3738 3578 3451 3118 2884 2842 2724 2341 2042 1689 1484 1434 1345 1365 1105 1030 1109 1230 1290 1401 1607 1048 814 784 759 741 711 656 556
1978 1829 1697 1990 2640 3479 3734 3417 3700 4624 4825 5800 5970 6096 5900 5800 5724 5616 5817 5803 5650 5681 5470 5147 4849 4583 4515 4372 4285 4096 3919 3837 3689 3687 3364 3175 3160 2847 2663 2547 2188 2071 1931 1804 1668 1544 1403 1374 1092 1139 1162 1331 1290 1503 1239 905 852 742 699 669 600 540 480
3076 2576 2127 2491 3875 3901 3142 2821 3619 4092 4906 5329 5557 5446 5337 5286 5202 5235 5328 5341 5180 4936 4843 4626 4492 4251 4198 4056 3792 3736 3634 3491 3323 3251 2940 2895 2724 2508 2492 2071 2019 1986 1924 1754 1503 1408 1282 1206 1350 1381 1282 1566 1640 1430 889 860 764 695 676 548 367 304 260
3451 3222 3636 4339 4224 3843 4116 4265 4578 4941 5100 5269 5202 4899 4662 4599 4626 4566 4492 4472 4432 4344 4304 4121 4001 3930 3770 3471 3232 3152 3056 2962 2750 2608 2421 2443 2328 2259 2251 1954 1853 1765 1648 1452 1489 1410 1337 1292 1388 1493 1503 1318 1458 1140 896 860 786 684 582 528 306 6 0
3842 3740 3385 3161 3033 2502 2638 3227 3597 3727 3847 3766 4095 4408 4499 4204 3921 3390 3660 3938 3958 3846 3581 3348 3266 3339 3150 2903 2780 2671 2699 2522 2478 2176 2066 2016 1974 1883 1866 1770 1836 1567 1428 1215 1260 1226 1393 1632 1700 1469 1210 1084 1271 1177 869 817 766 541 530 514 227 24 14
2892 2969 3099 3449 3134 2675 2549 2772 3028 3245 3187 3120 3515 3702 3268 3243 3048 3179 3176 3302 3453 3435 3429 3360 3055 2761 2532 2402 2286 2046 1999 1887 1850 1910 1966 1794 1698 1742 1665 1611 1575 1374 1186 1036 1120 1129 1167 1216 1284 1145 1095 1096 1227 1328 947 881 881 514 217 434 467 398 63
2245 2436 2792 2948 2342 2592 2511 2690 2373 2799 2792 2644 2493 2061 2230 2454 2554 2942 3027 3168 3166 3224 3465 3290 2938 2515 2186 2071 1906 1753 1823 1636 1700 1743 1649 1518 1490 1438 1484 1380 1280 1197 1048 999 981 983 1020 912 944 944 1322 1042 852 848 836 768 695 625 429 0 0 0 0
1688 1822 2044 2354 2599 2777 2735 2750 2825 2907 3005 3017 3011 3090 3062 2666 2951 3491 3186 3346 3274 3491 3566 3318 2932 2582 2120 1869 1852 1789 1734 1751 1856 1582 1347 1284 1271 1206 1337 1309 1195 1099 1001 954 883 824 725 688 660 690 645 941 822 732 776 715 660 543 139 0 0 0 0
Wind_Speed
12 18 19 16 14 14 14 16 19 17 15 15 15 20 22 20 21 21 21 22 22 22 22 22 21 20 19 19 19 19 18 20 20 18 18 19 19 19 20 19 16 17 18 20 20 20 19 20 23 25 25 25 25 26 27 26 27 26 27 26 26 28 31
16 17 15 15 11 11 12 14 17 17 15 14 13 17 18 19 20 20 20 21 22 22 23 22 22 20 20 19 19 19 20 20 21 19 19 19 20 19 20 20 17 16 19 20 21 20 21 19 24 26 27 28 28 28 29 29 28 28 28 29 29 29 31
19 11 10 13 9 8 10 11 12 12 11 12 13 15 17 16 17 19 20 22 23 23 23 23 23 22 21 21 20 20 21 22 21 21 20 21 21 21 20 21 18 18 19 21 22 21 24 23 24 28 29 30 31 30 30 29 29 29 30 31 32 32 33
23 15 11 11 8 11 14 11 9 11 13 15 15 16 16 16 17 18 20 22 24 24 23 23 23 23 23 23 22 22 22 22 21 21 21 21 22 21 21 20 20 20 19 20 22 23 24 25 26 26 29 30 30 30 30 30 30 31 31 35 34 34 35
31 23 10 9 10 15 17 13 6 6 13 16 14 13 16 18 18 19 20 22 24 24 23 23 22 22 22 23 22 21 22 21 21 21 21 21 22 21 21 20 21 21 20 20 21 23 23 26 27 26 27 29 30 29 31 31 32 33 33 37 37 37 38
29 27 14 15 19 16 16 14 7 7 8 10 11 12 16 20 21 25 24 23 22 23 22 22 21 21 20 21 20 21 21 21 21 22 22 21 22 22 21 19 21 21 22 22 22 23 24 25 26 27 29 30 31 31 33 34 34 36 36 38 40 40 41
26 33 27 25 24 17 16 15 10 6 6 4 4 7 12 18 23 24 24 25 25 23 25 24 22 20 19 19 20 21 22 22 22 23 22 21 21 22 20 19 20 21 19 21 22 24 24 25 25 26 27 30 31 32 34 36 36 38 38 39 40 41 43
nan 38 39 30 23 20 20 19 15 12 13 13 5 7 14 17 21 25 26 25 25 24 23 25 22 19 19 19 19 21 22 23 23 22 21 20 21 21 21 19 20 21 19 21 23 24 24 25 25 26 28 30 31 32 35 36 37 40 39 40 40 41 43
22 39 43 32 26 28 nan 26 23 20 19 18 12 2 12 15 19 23 25 26 25 24 24 24 23 20 20 20 19 21 22 23 22 21 20 20 20 21 21 20 20 21 21 21 22 23 24 26 26 27 29 30 31 31 34 36 37 38 39 40 39 39 38
19 33 40 33 32 33 27 26 25 21 17 16 13 4 11 14 16 20 23 24 24 24 25 23 21 20 21 20 19 21 21 21 20 20 19 19 20 22 21 21 22 21 21 20 20 23 24 26 26 28 29 30 31 32 34 37 37 37 39 42 40 36 33
28 30 35 35 36 31 26 26 22 15 14 15 15 12 11 13 15 18 21 23 23 23 23 21 18 18 20 22 21 21 20 21 21 19 19 20 20 23 22 22 23 22 23 22 22 23 25 26 27 28 31 32 33 34 36 38 39 39 39 40 40 36 32
33 35 35 36 35 30 25 27 24 16 15 15 13 14 14 14 15 17 19 22 22 22 21 20 17 17 19 22 22 20 21 21 20 19 20 21 21 23 22 22 22 23 24 25 25 25 26 28 28 30 32 33 35 36 37 39 39 39 39 39 40 38 36
34 34 35 37 36 30 26 32 30 21 20 19 15 14 15 15 16 16 16 18 21 21 19 18 16 14 18 22 23 20 21 22 20 19 20 20 20 19 20 22 23 23 24 26 28 29 29 29 31 31 34 36 37 38 39 40 42 41 40 39 40 39 39
43 29 32 36 37 32 26 31 33 27 23 24 20 16 16 16 16 16 16 19 19 20 19 17 16 14 15 19 20 19 21 21 20 20 20 18 18 18 19 21 21 21 21 24 28 32 33 33 33 34 36 39 41 43 43 44 45 45 44 43 41 40 39
38 34 35 38 39 33 27 32 37 30 26 26 25 21 19 17 16 15 16 18 18 18 19 16 16 15 14 17 19 19 19 20 19 18 19 18 19 19 19 20 21 21 23 24 25 28 32 34 35 37 39 41 43 46 48 48 49 48 48 47 45 41 40
27 31 41 41 36 33 31 32 36 34 32 31 28 25 21 19 16 16 17 19 20 17 18 17 16 16 15 16 18 19 19 19 18 17 17 18 19 20 19 20 22 23 25 26 26 27 29 32 36 38 41 44 46 48 50 50 49 51 54 52 47 44 41
nan nan 29 38 35 34 36 35 36 36 36 33 29 26 23 19 16 16 17 19 21 18 18 18 16 17 17 16 18 20 20 19 17 16 16 18 19 20 20 21 23 24 27 28 28 29 30 34 38 40 42 45 48 51 51 50 49 55 54 53 52 47 43
nan 22 28 37 38 36 37 37 36 39 38 36 32 30 27 23 17 15 15 17 18 20 19 20 19 19 19 18 19 20 20 18 17 17 17 19 20 21 23 24 24 25 27 29 31 32 33 36 39 41 43 44 48 51 51 51 52 56 54 53 52 48 45
nan nan nan 37 39 34 32 31 34 37 39 36 34 33 30 28 22 13 12 14 16 19 20 21 21 20 20 20 20 20 19 19 19 19 20 21 23 24 25 26 26 28 29 30 33 36 37 39 42 43 45 47 49 51 53 51 54 56 55 54 52 49 47
nan nan nan 36 37 35 33 32 31 37 39 38 35 31 30 31 26 16 12 13 17 18 20 21 23 22 22 22 21 20 20 21 22 22 23 24 26 27 28 28 30 31 32 35 37 39 41 42 45 47 48 50 51 52 52 51 56 58 56 54 52 50 47
26 25 nan nan 41 37 40 35 31 33 39 37 34 34 33 33 29 23 16 14 16 18 20 21 25 22 22 23 22 22 23 24 25 25 26 26 28 29 30 31 32 33 35 37 39 41 43 45 47 49 50 52 53 52 52 51 62 60 58 54 52 50 47
nan nan 32 37 36 39 41 42 35 31 33 36 38 37 34 32 29 23 16 13 17 19 21 24 26 25 24 25 24 24 25 26 26 27 27 29 30 31 33 34 34 35 37 39 41 43 45 47 47 49 51 52 53 53 54 53 63 61 58 55 53 53 46
nan nan nan nan 39 41 46 47 44 37 35 37 38 37 34 34 33 28 21 17 19 22 23 28 29 27 27 28 28 28 29 30 31 31 32 33 34 34 36 37 37 37 39 41 43 46 48 48 49 48 49 50 53 55 54 54 59 61 57 55 55 50 44
nan nan nan nan nan 46 54 55 50 44 38 37 37 36 36 37 36 34 29 23 23 25 27 30 30 29 30 30 31 32 33 34 35 36 35 35 36 38 38 38 37 38 41 43 44 46 48 49 48 47 47 49 53 55 55 53 57 59 56 54 52 48 43
nan nan nan nan nan 42 50 51 47 45 40 37 35 37 38 38 38 38 35 29 25 25 29 33 32 32 32 33 34 35 36 37 38 39 38 36 37 40 41 41 41 40 42 44 43 46 50 48 44 44 47 49 51 53 53 51 54 56 55 53 51 47 41
nan nan nan nan nan nan 43 47 46 45 42 37 35 38 38 39 41 41 39 35 30 28 31 36 36 35 35 36 38 37 38 38 41 42 41 42 41 41 43 44 45 45 46 46 46 49 50 48 42 45 47 50 49 49 49 48 50 51 54 54 52 50 44
29 nan 32 nan nan nan 38 46 48 47 43 39 38 40 40 41 44 44 41 40 35 30 32 37 39 38 39 40 40 40 40 41 42 44 44 45 44 45 46 47 49 50 52 52 52 52 49 44 43 47 47 48 47 45 48 46 48 50 53 53 52 50 46
45 44 30 38 41 32 36 42 50 50 45 43 42 45 45 47 49 47 44 41 38 36 38 40 42 42 43 44 43 43 43 44 45 45 46 47 47 47 49 50 52 53 56 57 58 56 49 46 45 46 45 45 44 43 45 46 49 50 49 53 52 51 49
45 47 47 46 44 44 40 44 46 44 40 38 40 45 49 51 52 49 45 42 42 42 43 44 44 45 46 46 46 46 46 47 49 47 47 49 49 51 53 53 53 55 56 56 56 51 48 47 47 46 43 41 43 46 45 43 46 55 51 50 52 52 51
46 46 43 40 40 36 43 46 42 38 35 35 43 49 52 54 52 48 45 45 45 47 47 46 47 47 48 49 49 49 49 50 50 49 50 52 52 54 56 55 55 57 55 53 50 48 48 48 47 45 43 42 43 45 46 47 48 54 57 55 54 53 54
49 49 44 39 39 42 45 48 43 38 40 46 51 56 56 53 50 49 49 49 49 50 49 49 49 49 50 51 51 52 52 52 51 52 53 54 56 58 58 56 58 59 55 52 52 52 50 48 46 44 43 43 46 47 50 50 51 51 53 57 59 58 57
35 40 47 48 46 44 46 44 43 46 50 54 59 60 57 52 52 54 54 52 51 50 51 52 53 52 53 53 54 54 55 54 54 54 57 57 57 60 59 57 57 57 53 51 53 53 52 49 46 44 44 45 46 49 52 53 53 53 54 53 56 55 55
33 39 46 48 42 39 39 39 42 46 49 53 55 56 55 55 55 54 52 52 52 53 54 55 55 55 54 55 55 55 55 56 55 57 59 59 60 61 61 61 59 55 51 50 52 53 51 49 46 45 46 47 48 52 54 53 53 53 53 53 52 50 52
41 51 56 53 51 49 47 49 47 46 48 51 51 49 49 52 53 53 52 52 54 55 56 56 56 56 56 58 57 56 56 57 60 61 60 60 60 61 63 65 62 54 48 48 49 52 52 49 46 46 47 48 51 53 54 54 53 53 53 52 52 nan nan
44 50 54 54 53 52 48 44 43 42 47 49 52 51 52 51 51 51 52 53 55 55 57 58 58 57 59 58 58 59 58 59 59 61 62 63 65 62 59 58 54 51 48 47 48 48 50 48 48 48 47 49 53 54 54 54 54 53 53 54 55 nan nan
46 51 54 54 52 50 47 44 42 43 47 49 51 54 55 56 55 53 53 54 55 57 58 58 58 59 59 59 59 60 59 58 60 63 64 65 64 63 64 67 61 50 48 50 51 53 51 50 47 46 48 51 52 51 52 53 53 61 62 62 61 59 nan
44 45 47 51 53 51 47 46 45 45 45 46 48 52 54 55 56 55 55 55 56 58 58 58 58 59 60 59 58 58 57 58 61 62 64 65 64 63 65 64 59 56 53 53 52 53 55 52 48 49 54 54 54 51 54 62 64 65 64 nan nan nan nan
47 49 50 52 51 49 47 46 46 47 47 48 50 53 54 56 56 55 56 56 56 57 57 58 59 60 61 62 61 61 59 60 61 62 62 62 63 65 66 66 61 54 53 55 55 55 54 52 51 51 57 63 60 57 50 54 62 65 65 nan nan nan nan
Wind_Direction
274 277 276 270 273 299 314 307 314 308 299 299 317 325 323 311 305 297 294 293 295 293 292 291 292 291 297 290 290 289 288 290 288 292 296 295 294 290 291 294 297 298 300 303 304 305 304 307 309 312 318 319 321 320 321 325 327 327 324 322 321 316 320
292 292 292 290 287 307 312 306 308 306 304 295 311 327 327 323 312 306 299 294 295 294 292 291 291 291 293 289 285 287 290 290 289 287 291 292 290 288 292 293 298 299 297 301 303 303 308 311 312 316 318 319 323 324 324 325 326 327 325 322 322 320 318
291 294 298 282 280 287 293 293 306 322 333 332 335 339 342 336 326 317 307 301 300 296 292 294 293 291 289 286 285 288 288 289 289 290 295 296 297 298 291 292 298 298 299 304 307 312 312 318 317 320 321 323 326 327 325 325 326 328 326 324 322 321 320
283 293 298 289 261 260 284 296 310 342 357 1 0 358 349 346 335 325 318 313 309 305 305 300 294 292 288 287 287 286 289 291 289 288 294 297 297 294 290 292 297 300 305 311 314 316 316 320 323 318 322 321 325 326 327 328 329 329 328 324 322 323 322
297 301 295 281 285 263 279 289 302 355 13 10 4 353 348 345 340 333 325 324 323 319 315 309 302 297 289 290 281 280 287 289 287 286 292 295 295 291 295 303 303 308 310 317 315 318 320 320 320 316 318 319 324 325 327 329 330 329 327 324 325 325 322
295 289 275 301 300 277 279 297 324 12 14 12 2 342 344 350 352 352 341 332 328 324 316 314 312 304 299 295 284 280 280 282 282 286 292 296 295 296 301 308 309 313 318 319 316 320 322 321 320 319 320 321 327 329 328 329 331 329 327 326 328 326 324
286 290 287 307 304 275 276 292 304 297 287 327 344 331 349 356 359 356 347 343 338 329 329 328 322 314 303 295 288 286 289 289 289 295 296 301 299 299 306 311 311 315 318 314 319 321 321 322 325 325 324 327 329 330 329 329 330 328 326 327 329 327 326
nan 283 290 304 306 290 276 272 280 288 278 281 292 21 12 358 353 355 353 346 339 334 334 332 326 317 307 300 296 299 298 299 296 299 298 304 301 303 310 315 313 316 319 323 323 322 326 326 329 328 327 329 329 330 329 329 330 328 327 329 331 330 329
239 271 281 295 302 295 nan 264 260 267 274 283 288 25 19 359 352 351 350 346 339 335 337 334 332 322 307 308 306 308 305 305 304 303 307 311 306 319 322 320 320 322 327 326 325 328 333 333 334 331 331 333 332 332 331 331 331 328 328 330 332 333 335
223 271 284 294 293 286 277 272 267 258 265 279 284 322 3 360 349 345 346 348 341 337 334 333 332 327 317 315 317 316 313 311 308 318 319 322 317 325 329 329 330 329 330 331 330 335 339 339 338 334 335 335 334 335 332 332 332 331 330 330 331 332 334
236 257 266 276 279 280 279 275 271 266 276 293 315 338 333 341 343 342 344 348 343 332 329 328 330 332 325 323 327 326 318 318 317 321 324 327 325 331 334 335 334 331 334 334 339 338 338 338 337 334 333 334 334 334 332 332 332 331 329 326 326 327 325
247 242 254 261 267 274 284 279 274 271 267 272 301 315 315 326 334 340 340 348 342 329 321 326 328 333 326 321 324 322 322 319 318 323 331 333 334 334 334 333 331 333 334 336 339 336 339 336 335 332 333 332 331 331 330 328 328 328 326 324 323 323 321
234 233 244 254 263 267 270 275 277 274 271 270 288 299 300 312 327 333 329 337 340 325 318 314 317 313 322 319 323 319 322 319 319 320 332 332 328 326 328 332 335 338 338 335 337 337 338 335 334 331 331 330 328 328 327 324 324 325 326 322 319 320 318
253 246 242 248 257 258 264 271 274 269 267 271 280 288 289 306 320 323 321 329 331 324 318 312 308 307 310 310 311 314 319 316 318 324 330 328 320 320 327 329 327 327 326 329 333 335 335 335 335 331 330 330 329 327 324 323 323 323 325 322 318 315 315
250 269 264 263 261 258 262 260 261 266 270 271 278 287 291 297 311 311 310 315 322 323 319 309 309 307 309 306 307 311 311 309 315 324 328 323 319 322 325 323 320 320 321 326 329 329 331 332 332 329 330 329 329 327 325 326 324 321 322 321 318 314 312
243 256 262 259 256 256 252 253 252 256 263 264 274 282 285 286 295 310 312 311 317 317 309 306 312 308 307 307 306 303 304 308 313 323 324 320 321 325 325 322 321 322 322 325 328 326 326 323 325 327 328 329 329 327 328 328 325 323 324 320 316 314 310
nan nan 273 267 261 259 256 256 256 259 262 265 270 277 278 275 287 298 319 316 326 317 308 303 306 308 304 303 301 298 302 307 317 318 318 318 320 322 324 325 322 321 320 321 325 325 321 318 321 324 325 327 328 329 328 328 326 325 322 320 319 313 309
nan 213 252 264 253 250 256 262 262 262 263 266 268 270 270 268 273 287 311 314 323 323 312 301 307 311 304 298 298 300 307 312 314 312 313 313 318 321 321 320 320 319 317 316 318 319 316 316 318 320 322 325 328 329 329 328 326 325 323 319 316 313 308
nan nan nan 258 261 258 261 267 263 259 263 267 267 268 274 272 269 279 298 306 308 302 310 306 307 306 303 296 302 306 307 306 307 307 308 312 315 315 315 316 317 316 316 318 314 313 313 311 314 318 321 324 328 330 329 328 324 324 321 317 315 315 312
nan nan nan 246 264 261 257 251 248 250 258 262 267 276 279 278 276 268 268 276 281 296 302 296 298 306 305 297 302 301 299 299 300 301 303 304 307 309 309 311 314 314 311 309 307 309 309 310 313 316 320 322 324 326 325 326 322 324 320 317 319 317 312
230 245 nan nan 247 262 265 265 258 254 255 260 267 264 265 268 270 264 260 264 279 286 289 288 291 301 299 295 295 294 293 296 296 299 300 302 304 306 306 310 310 312 309 308 308 308 308 309 312 314 317 319 320 322 322 320 322 324 323 320 319 318 313
nan nan 236 237 238 247 265 272 274 274 263 256 256 261 266 270 274 273 272 277 274 278 280 278 284 293 292 291 293 293 295 298 297 298 299 301 303 306 308 309 309 311 308 305 304 304 304 306 311 314 315 316 317 320 320 316 321 323 322 319 320 323 311
nan nan nan nan 243 250 266 269 272 275 264 258 259 262 267 268 272 270 266 268 269 271 276 276 283 289 290 290 292 295 297 297 297 296 298 300 302 305 306 308 309 309 306 305 304 304 304 306 309 307 311 314 316 317 316 312 319 322 325 322 324 318 313
nan nan nan nan nan 250 266 269 270 270 273 267 260 261 261 266 270 268 263 261 262 268 273 274 281 284 286 290 293 293 294 294 294 294 296 299 304 304 305 306 305 304 301 302 304 305 305 304 305 305 307 312 313 314 313 314 319 325 326 324 326 321 316
nan nan nan nan nan 242 264 269 270 266 266 263 260 257 259 264 270 270 266 262 267 270 271 273 277 281 285 288 289 289 289 291 291 292 295 297 300 301 302 304 301 300 297 299 298 297 296 302 306 308 305 311 312 312 314 315 317 325 325 327 325 320 315
nan nan nan nan nan nan 248 263 262 261 261 258 253 255 257 264 266 268 268 267 268 267 269 274 276 278 281 281 282 284 286 288 289 292 295 295 297 297 295 295 297 297 295 292 292 292 296 303 308 308 307 306 308 310 313 315 309 321 325 325 323 323 317
233 nan 234 nan nan nan 248 259 261 257 256 250 249 250 255 260 262 264 266 267 267 268 270 271 273 276 276 275 280 282 283 284 287 291 292 294 295 296 295 296 296 294 294 295 296 294 296 305 307 305 303 306 307 310 313 315 313 319 322 321 322 323 320
227 213 206 231 240 248 250 255 255 255 252 245 245 246 250 254 258 261 264 266 268 268 267 268 270 271 273 276 279 284 287 288 288 290 291 293 295 296 294 294 295 295 296 298 296 295 297 298 298 298 301 301 303 301 303 310 313 314 318 319 319 321 322
231 227 218 234 235 234 233 238 250 257 252 247 243 240 244 250 255 259 261 262 264 266 266 268 269 271 274 276 280 282 283 284 287 287 289 292 294 294 294 293 293 292 294 295 294 294 295 298 298 299 298 301 305 306 307 310 309 312 312 316 318 318 318
228 232 233 223 234 235 235 234 241 246 241 237 230 231 238 245 252 255 258 259 260 263 267 270 271 272 274 275 276 278 278 280 283 285 288 291 291 291 291 291 292 293 292 294 296 295 295 297 297 298 305 308 307 307 309 307 304 310 313 313 316 315 315
215 210 220 227 224 222 226 231 234 234 229 223 224 226 233 241 248 252 253 253 257 262 266 269 269 268 270 270 271 273 275 277 280 282 284 286 286 285 285 287 290 293 290 291 294 295 296 299 300 303 306 308 308 309 306 305 304 303 307 312 312 314 314
223 222 217 212 214 219 224 224 222 226 225 222 224 225 230 236 243 248 248 252 257 260 262 264 264 265 267 268 270 273 276 279 280 279 280 281 279 279 280 282 288 291 289 287 291 295 298 300 302 305 306 308 309 308 308 306 304 303 305 308 312 314 316
231 228 229 228 221 219 220 224 226 226 227 228 227 230 234 239 242 245 248 252 256 257 258 260 262 264 266 269 271 272 274 276 276 277 277 275 274 277 280 282 285 288 288 288 292 295 297 300 303 304 307 309 309 307 307 306 304 305 306 308 308 305 304
236 231 224 223 222 212 218 220 226 227 226 224 228 233 239 241 243 246 249 252 254 255 255 258 261 264 266 269 269 271 273 274 275 277 276 273 276 280 284 284 284 287 289 291 294 296 297 300 304 306 307 309 308 307 307 305 305 308 309 309 307 nan nan
238 231 225 221 223 225 219 221 225 228 232 229 229 233 237 242 246 248 249 249 252 253 256 258 260 263 267 268 270 271 271 274 276 275 272 273 273 273 274 276 279 282 279 278 282 287 295 301 302 305 309 309 307 307 308 309 310 311 310 308 308 nan nan
235 229 220 216 221 226 224 219 223 229 230 229 231 233 236 239 242 245 248 250 251 253 256 258 261 265 267 270 272 274 275 276 277 275 276 275 276 279 278 275 271 272 282 286 284 286 287 289 300 304 306 306 302 303 309 311 308 305 308 306 306 304 nan
236 228 220 219 222 223 224 224 226 228 230 231 233 235 237 239 242 243 246 247 250 254 256 258 260 263 267 270 272 272 273 275 275 275 275 277 280 282 284 284 278 273 274 281 286 285 282 285 290 292 296 301 301 296 292 297 299 302 303 nan nan nan nan
230 224 223 223 223 223 225 226 226 227 227 227 229 231 234 238 240 241 246 248 251 253 255 257 259 263 265 267 265 266 269 270 271 273 276 281 285 286 287 287 287 282 277 279 281 281 282 283 285 288 293 297 298 299 295 295 299 302 303 nan nan nan nan